Regional Weather Roundup
Issued by NWS Mt. Holly, NJ

Current Version | Previous Version | Text Only | Print | Product List | Glossary On
Versions: 1 2 3 4 5 6 7 8 9 10 11 12 13 14 15 16 17 18 19 20 21 22 23 24 25 26 27 28 29 30 31 32 33 34 35 36 37 38 39 40 41 42 43 44 45 46 47 48 49 50
000 ASUS41 KPHI 050512 RWRPHI REGIONAL WEATHER ROUNDUP NATIONAL WEATHER SERVICE MOUNT HOLLY NJ 1200 AM EST FRI MAR 05 2021 NOTE: "FAIR" INDICATES FEW OR NO CLOUDS BELOW 12,000 FEET WITH NO SIGNIFICANT WEATHER AND/OR OBSTRUCTIONS TO VISIBILITY. * = STATION DOES NOT REPORT PRECIPITATION (E.G. RAIN, SNOW, ETC.) OR FOG. NJZ015>026-050600- SOUTHERN NEW JERSEY CITY SKY/WX TMP DP RH WIND PRES REMARKS POMONA N/A 32 12 43 NW17G24 29.92S WCI 21 WILDWOOD* CLEAR 35 19 52 NW15G21 29.96R WCI 25 MILLVILLE CLEAR 32 14 47 NW10 29.95S WCI 24 WRIGHTSTOWN CLEAR 29 4 34 NW24G33 29.92S WCI 15 MOUNT HOLLY CLEAR 31 10 41 NW10G20 29.95S WCI 22 TRENTON CLEAR 28 5 37 N14G21 N/A WCI 17 $$ NJZ001>014-050600- NORTHERN NEW JERSEY CITY SKY/WX TMP DP RH WIND PRES REMARKS SUSSEX CLEAR 23 8 52 VRB6G20 29.91S WCI 16 ANDOVER* N/A 23 9 55 N5 29.92S WCI 17 MORRISTOWN CLEAR 25 9 50 NW12 29.91F WCI 14 NEWARK CLEAR 27 7 42 NW23G32 29.89F WCI 12 TETERBORO CLEAR 26 9 48 NW28G35 29.87F WCI 10 CALDWELL CLEAR 27 8 44 NW17G26 29.91F WCI 14 SOMERVILLE CLEAR 28 8 43 NW10G22 29.91S WCI 19 ALLAIRE* CLEAR 29 9 43 NW14G24 29.90F WCI 18 TOMS RIVER* CLEAR 29 13 51 NW9 29.91F WCI 20 $$ PAZ043-044-047-054-055-060>062-066>071-050600- EASTERN PENNSYLVANIA CITY SKY/WX TMP DP RH WIND PRES REMARKS PHILADELPHIA CLEAR 32 8 36 NW14G28 29.96S WCI 22 NORTH PHILA CLEAR 31 10 41 NW9 29.96R WCI 23 BLUE BELL* CLEAR 29 9 42 NW9G18 29.95R WCI 21 DOYLESTOWN CLEAR 29 4 34 NW13G26 29.93R WCI 19 QUAKERTOWN* CLEAR 27 5 39 W12G18 29.93F WCI 16 PERKASIE* FAIR 27 5 39 NW13G25 29.93R WCI 16 POTTSTOWN CLEAR 28 3 34 NW12 29.97R WCI 18 LANCASTER CLEAR 30 8 39 NW9 29.99R WCI 22 COATESVILLE CLEAR 28 5 37 NW13G21 29.96S WCI 18 WEST CHESTER FAIR 32 10 40 MISG 29.95R READING CLEAR 28 3 34 NW18G29 29.97R WCI 15 ALLENTOWN CLEAR 26 5 40 NW16G22 29.95S WCI 14 QN CITY/ALNTWN FAIR 28 9 43 NW9G21 29.96F WCI 20 MOUNT POCONO CLEAR 15 4 61 NW16G31 29.82S WCI -1 HAZLETON CLEAR 21 3 45 NW12G22 29.94R WCI 9 LEHIGHTON FAIR 28 5 37 NW5 29.97S WCI 23 WILKES BARRE CLEAR 22 8 55 NW18G26 29.95F WCI 7 $$ DEZALL-MDZ008-012-015-019-020-050600- DELAWARE AND EASTERN MARYLAND CITY SKY/WX TMP DP RH WIND PRES REMARKS WILMINGTON CLEAR 31 11 43 NW15 29.98R WCI 20 DOVER CLEAR 34 15 45 NW16 29.96S WCI 23 CHESWOLD CLEAR 34 14 44 NW9G17 29.98S WCI 26 GEORGETOWN CLEAR 37 17 44 NW10G21 29.96R WCI 30 EASTON CLEAR 35 15 44 NW14G22 30.03S WCI 26 STEVENSVILLE CLEAR 34 16 47 NW17G25 30.01S WCI 23 ABERDEEN CLEAR 31 11 43 NW9G18 30.01S WCI 23 PATUXENT CLEAR 38 21 50 NW22 30.01R WCI 27 OCEAN CITY CLOUDY 38 20 48 N21G30 29.95R WCI 28 WALLOPS ISLAND CLEAR 38 20 48 NW14G24 29.96R WCI 30 CAMBRIDGE MOCLDY 36 19 51 NW13G23 29.99R WCI 27 SALISBURY CLEAR 36 20 52 NW15 29.96R WCI 27 $$ PAZ001-021-NYZ056-072-MDZ011-DCZ001-050600- OTHER NEARBY LOCATIONS CITY SKY/WX TMP DP RH WIND PRES REMARKS HARRISBURG CLEAR 29 10 45 NW22G29 30.01S WCI 15 STATE COLLEGE CLEAR 22 7 53 NW16G24 30.03F WCI 8 WILLIAMSPORT CLEAR 24 4 42 NW16G23 30.03S WCI 11 BINGHAMTON CLOUDY 16 5 62 NW21G31 29.91S WCI -1 NEW YORK CITY CLEAR 27 7 42 NW16G33 29.88F WCI 15 BALTIMORE CLEAR 32 15 49 NW14G21 30.01S WCI 22 WASHINGTON DC PTCLDY 34 17 50 NW18G28 30.06R WCI 23 $$

USA.gov is the U.S. government's official web portal to all federal, state and local government web resources and services.